ECHOSTAR 23

Last updated on Thu Aug 13 2026 00:03:01 GMT+0000 (Coordinated Universal Time)

1 42070U 17014A 26224.55025470 -.00000075 00000+0 00000+0 0 9991 2 42070 0.0138 82.7852 0002071 53.0364 273.3553 1.00270635 34481
UTC large
Height (km)
Speed (km/s)
/
Latitude / Longitude
Inclination (degrees)
Orbital Period (minutes)
Azimuth
Elevation
Range (km)
Doppler Factor

Next 0 passes for location: London (51.5072 / 0.1276)

No passes found over London.
ECHOSTAR 23